Weather in Znamenskiy

Russia / Mari El Republic     56°38′43″N   47°59′08″E
temp.,
°C
wind,
m/s
gust,
m/s
humid.,
%
clouds,
%
prec.,
mm/h
press.,
hPa
HPBL,
m
7 march, sun
sun700:00−15wsw229875 0.1 101120
03:00−15sw239878 0.1 101145
06:00−16sw239895 0.1 101034
09:00−14ssw249696 0.1 1009178
12:00−9s479192 0.0 1007526
15:00−8s698996 0.1 1003666
18:00−8s61294100 0.3 1001788
21:00−7s61294100 1.4 997801
8 march, mon
mon800:00−7sse51194100 1.1 993646
03:00−6sse4995100 1.9 990476
06:00−6se3896100 0.9 988370
09:00−4n1296100 1.5 989199
12:00−5w81393100 2.4 992867
15:00−5w71188100 3.3 9951036
18:00−7wsw41090100 0.1 998398
21:00−12wsw339394 0.3 100053
9 march, tue
tue900:00−13wnw1297100 0.0 100120
03:00−13nnw3496100 0.1 100281
06:00−15nnw359688 0.1 1004103
09:00−14nnw359386 0.1 1007304
12:00−11nnw348897 0.0 1009598
15:00−11nnw358799 0.1 1010789
18:00−15n3795100 0.1 1011202
21:00−18n3697100 0.1 1014138
10 march, wed
wed1000:00−21n389889 0.0 1014171
03:00−24n389788 0.1 1016170
06:00−27n379768 0.0 1017149
09:00−25n479452 0.0 1019278
12:00−22n468941 0.0 1020416
15:00−18nnw368321 0.0 1020559
18:00−22wnw339559 0.0 102155
21:00−24w349635 0.0 102262
11 march, thu
thu1100:00−23w369944 0.0 1021116
03:00−24wsw379966 0.0 1021126
06:00−21w4109790 0.1 1020319
09:00−17wnw5109595 0.4 1019468
12:00−12wnw5989100 0.2 1019643
15:00−9nw51088100 0.3 1020842
18:00−10wnw41093100 0.1 1021412
21:00−12wnw4109392 0.1 1023237